Regional Weather Roundup
Issued by NWS Green Bay, WI

Home | Current Version | Previous Version | Graphics & Text | Print | Product List | Glossary Off
Versions: 1 2 3 4 5 6 7 8 9 10 11 12 13 14 15 16 17 18 19 20 21 22 23 24 25 26 27 28 29 30 31 32 33 34 35 36 37 38 39 40 41 42 43 44 45 46 47 48 49 50

000
ASUS43 KGRB 122210
RWRGRB

NORTH-CENTRAL AND NORTHEAST WISCONSIN REGIONAL WEATHER ROUNDUP
NATIONAL WEATHER SERVICE GREEN BAY WI
500 PM CDT SAT JUL 12 2014

WIZ005-009-010>012-018-019-122300-
NORTH CENTRAL WISCONSIN

CITY           SKY/WX    TMP DP  RH WIND       PRES   REMARKS
IRONWOOD       CLOUDY    68  59  73 NW5       29.90F
MANITOWISH WTR CLOUDY    73  66  80 W3        29.93S
ARBOR VITAE    CLOUDY    77  67  71 SW6       29.94S
EAGLE RIVER    CLOUDY    74  64  71 SW7       29.92F
LAND O LAKES   CLOUDY    75  65  69 SW5       29.94S
RHINELANDER    TSTM      65  63  93 W26G36    29.98R VSB 1/2
PHILLIPS       CLOUDY    66  64  96 CALM      29.95F
ANTIGO         CLOUDY    73  69  88 SW10      29.95F
TOMAHAWK       RAIN      63  59  88 CALM      29.97R
MERRILL        LGT RAIN  72  70  92 SW7       29.94F
$$

WIZ013-073-122300-
NORTHEAST WISCONSIN

CITY           SKY/WX    TMP DP  RH WIND       PRES   REMARKS
IRON MOUNTAIN  CLOUDY    79  70  74 SW9       29.89F
MARINETTE      PTSUNNY   79  68  69 W6        29.89F
OCONTO         CLOUDY    79  70  73 SW7       29.89F
$$

WIZ017-030-035>037-045-122300-
CENTRAL WISCONSIN

CITY           SKY/WX    TMP DP  RH WIND       PRES   REMARKS
MEDFORD        LGT RAIN  71  68  91 NW16      29.99R
WAUSAU         LGT RAIN  73  70  90 SW9       29.93F FOG
MOSINEE        RAIN      72  72 100 SW12      29.97F
MARSHFIELD     LGT RAIN  68  66  93 W6        29.97F FOG
WISC RAPIDS    HVY RAIN  69  63  81 NE8       29.98S VSB 1
STEVENS POINT  LGT RAIN  65  61  88 S8        29.96F
WAUPACA        CLOUDY    80  70  73 SW6       29.94F
SHAWANO        CLOUDY    79  70  73 W8        29.93F
CLINTONVILLE   CLOUDY    77  68  73 W7        29.92F
$$

WIZ038-039-048-051-122300-
FOX VALLEY

CITY           SKY/WX    TMP DP  RH WIND       PRES   REMARKS
NWS GREEN BAY  CLOUDY    80  70  71 SW8       29.92F
APPLETON       CLOUDY    75  68  78 W8        29.94F
OSHKOSH        LGT RAIN  76  70  82 W6        29.93F
FOND DU LAC    CLOUDY    74  69  85 W5        29.94F
$$

WIZ022-050-052-122300-
EAST CENTRAL WISCONSIN

CITY           SKY/WX    TMP DP  RH WIND       PRES   REMARKS
STURGEON BAY   CLOUDY    72  63  73 S7        29.92F
MANITOWOC      CLOUDY    68  63  84 E5        29.92F
SHEBOYGAN      CLOUDY    76  68  76 W9        29.93F
$$

LMZ563-521-522-541>543-122300-
LAKESHORE

STATION/POSITION TIME  TEMP    WIND        PRES    VSBY  WAVE
                       AIR SEA DIR/SP/G                  HT/PER
                 (UTC) (F)     (DEG/KT/KT) (MB)    (MI)  (FT/S)
SHEBOYGAN LKSHOR 2200   69     190/  8/  9 1013.2F
KEWAUNEE LKSHORE 2200   54     150/  3/  5 1014.0F
TWO RIVERS CG    2100   62                   N/A     3/8   1
NORTHPORT PIER   2200   68     160/  6/ 13 1012.5F
N MID LAKE BUOY  2200   59 56  210/ 14/ 16 1012.3F         2/ 4
STURGEON BAY CG  2100   54 54  180/  4     1014.1   3 1/2  1
MENOMINEE LKSHOR 2200   74     180/  6/  9 1012.9F
$$



USA.gov is the U.S. government's official web portal to all federal, state and local government web resources and services.